{"data":{"norad_id":47122,"epoch":"2026-09-19T14:07:02.902656Z","epoch_age_seconds":100776,"freshness":"FRESH","line1":"1 47122U 20088A   26262.58822804  .00642590  22122-3  76115-3 0  9990","line2":"2 47122  53.0337  42.2849 0003493 355.3325   4.7674 16.07948467322583","mean_motion":16.07948467,"eccentricity":0.0003493,"inclination_deg":53.0337,"raan_deg":42.2849,"arg_perigee_deg":355.3325,"mean_anomaly_deg":4.7674,"bstar":0.00076115,"rev_number":32258,"period_min":89.555108857851,"perigee_km":250.16109548878,"apogee_km":254.79324254726,"semimajor_km":6630.614169018,"source":"CELESTRAK","updated_at":"2026-09-20T09:00:38.587286Z"}}